Land O' Lakes, WI

8:46 AM CDT on April 20, 2018 (GMT -0500)
Kings Land O'Lakes

Weather History for KLNL - July, 2013

Change the Weather History Date:

Saturday, July 27, 2013

  Actual Average (KEGV) Record (KEGV)
Temperature  
Mean Temperature 48 °F -  
Max Temperature 53 °F 75 °F 87 °F (2015)
Min Temperature 44 °F 55 °F 39 °F (2005)
Degree Days  
Heating Degree Days 16    
Moisture  
Dew Point 45 °F    
Average Humidity 89    
Maximum Humidity 95    
Minimum Humidity 79    
Precipitation  
Precipitation 0.00 in - - ()
Sea Level Pressure  
Sea Level Pressure 29.89 in    
Wind  
Wind Speed 6 mph (NW)    
Max Wind Speed 10 mph    
Max Gust Speed -    
Visibility 8 miles    
Events Rain    
Averages and records for this station are not official NWS values.
T = Trace of Precipitation, MM = Missing Value Source: NWS Daily Summary

Daily Weather History Graph

Daily Weather History Graph

Search for Another Location

Airport or City:

Astronomy

Jul. 27, 2013 Rise Set
Actual Time 5:33 AM CDT 8:32 PM CDT
Civil Twilight 4:57 AM CDT 9:07 PM CDT
Nautical Twilight 4:12 AM CDT 9:53 PM CDT
Astronomical Twilight 3:17 AM CDT 10:47 PM CDT
Moon 10:55 PM CDT (7/27) 11:36 AM CDT (7/27)
Length of Visible Light 16h 10m
Length of Day
14h 59m
Waning Gibbous, 70% of the Moon is Illuminated
Jul 27
Waning Gibbous
Jul 29
Last Quarter
Aug 6
New
Aug 14
First Quarter
Aug 20
Full

Hourly Weather History & Observations

Time (CDT) Temp. Windchill Dew Point Humidity Pressure Visibility Wind Dir Wind Speed Gust Speed Precip Events Conditions
12:15 AM 45.7 °F 40.6 °F 43.3 °F 92% 29.96 in 10.0 mi NNW 10.4 mph - N/A   Overcast
12:35 AM 45.5 °F 41.8 °F 43.7 °F 93% 29.96 in 4.0 mi NNW 6.9 mph - N/A   Light Drizzle
12:55 AM 45.1 °F 42.0 °F 43.3 °F 93% 29.96 in 4.0 mi NNW 5.8 mph - N/A   Overcast
1:15 AM 45.0 °F 42.6 °F 43.5 °F 95% 29.96 in 2.5 mi NNW 4.6 mph - N/A Rain Heavy Rain
1:35 AM 44.8 °F 41.6 °F 43.2 °F 94% 29.95 in 3.0 mi NW 5.8 mph - N/A Rain Light Rain
1:55 AM 44.6 °F 40.7 °F 43.2 °F 95% 29.95 in 4.0 mi NW 6.9 mph - N/A   Overcast
2:15 AM 44.6 °F 40.2 °F 42.8 °F 93% 29.94 in 10.0 mi NW 8.1 mph - N/A   Overcast
2:35 AM 44.6 °F 39.2 °F 42.3 °F 91% 29.93 in 10.0 mi NW 10.4 mph - N/A   Overcast
2:55 AM 44.6 °F 43.1 °F 42.4 °F 92% 29.93 in 10.0 mi NW 3.5 mph - N/A   Overcast
3:15 AM 44.2 °F 41.8 °F 41.9 °F 91% 29.93 in 10.0 mi NW 4.6 mph - N/A   Overcast
3:35 AM 44.4 °F 42.0 °F 41.9 °F 91% 29.92 in 10.0 mi WNW 4.6 mph - N/A   Overcast
3:55 AM 44.2 °F 41.0 °F 42.3 °F 93% 29.92 in 10.0 mi NW 5.8 mph - N/A   Overcast
4:15 AM 44.4 °F 40.5 °F 42.4 °F 93% 29.92 in 5.0 mi NW 6.9 mph - N/A   Drizzle
4:35 AM 44.6 °F 41.4 °F 42.1 °F 91% 29.92 in 10.0 mi WNW 5.8 mph - N/A   Overcast
4:55 AM 44.8 °F 41.6 °F 42.3 °F 91% 29.91 in 10.0 mi WNW 5.8 mph - N/A   Overcast
5:15 AM 45.0 °F 42.6 °F 42.8 °F 92% 29.91 in 10.0 mi WNW 4.6 mph - N/A   Overcast
5:35 AM 45.5 °F 43.2 °F 43.2 °F 92% 29.91 in 10.0 mi WNW 4.6 mph - N/A   Overcast
5:55 AM 45.5 °F 41.8 °F 42.8 °F 90% 29.91 in 10.0 mi NW 6.9 mph - N/A   Overcast
6:15 AM 46.0 °F 43.1 °F 43.0 °F 89% 29.91 in 10.0 mi WNW 5.8 mph - N/A   Overcast
6:35 AM 46.4 °F 43.5 °F 43.3 °F 89% 29.91 in 10.0 mi WNW 5.8 mph - N/A   Overcast
6:55 AM 46.8 °F - 43.9 °F 90% 29.90 in 10.0 mi WNW 3.5 mph - N/A   Overcast
7:15 AM 47.3 °F - 44.4 °F 90% 29.90 in 5.0 mi NW 3.5 mph - N/A   Overcast
7:35 AM 47.5 °F - 45.0 °F 91% 29.89 in 7.0 mi West 3.5 mph - N/A   Overcast
7:55 AM 48.2 °F - 45.1 °F 89% 29.89 in 10.0 mi WNW 6.9 mph - N/A   Overcast
8:15 AM 49.1 °F - 44.8 °F 85% 29.89 in 10.0 mi WNW 4.6 mph - N/A   Overcast
8:35 AM 49.1 °F - 45.5 °F 87% 29.89 in 10.0 mi West 5.8 mph - N/A   Overcast
8:55 AM 50.0 °F - 46.4 °F 87% 29.88 in 10.0 mi West 6.9 mph - N/A   Overcast
9:15 AM 50.0 °F - 45.7 °F 85% 29.87 in 10.0 mi West 5.8 mph - N/A   Overcast
9:35 AM 50.5 °F - 45.7 °F 83% 29.87 in 10.0 mi West 5.8 mph - N/A   Overcast
9:55 AM 50.4 °F - 46.2 °F 86% 29.87 in 10.0 mi West 5.8 mph - N/A   Overcast
10:15 AM 50.0 °F - 46.8 °F 89% 29.87 in 3.0 mi WNW 5.8 mph - N/A Rain Light Rain
11:15 AM 50.9 °F - 47.7 °F 89% 29.87 in 7.0 mi NW 4.6 mph - N/A   Overcast
11:55 AM 51.8 °F - 46.6 °F 82% 29.86 in 5.0 mi NW 5.8 mph - N/A   Haze
12:15 PM 53.2 °F - 46.9 °F 79% 29.86 in 10.0 mi WNW 5.8 mph - N/A   Overcast
12:35 PM 51.1 °F - 47.5 °F 87% 29.86 in 3.0 mi NNW 4.6 mph - N/A   Overcast
12:55 PM 51.3 °F - 47.8 °F 88% 29.86 in 3.0 mi WNW 5.8 mph - N/A Rain Light Rain
1:15 PM 51.3 °F - 47.3 °F 86% 29.86 in 7.0 mi NW 3.5 mph - N/A   Overcast
1:55 PM 50.5 °F - 48.2 °F 92% 29.86 in 7.0 mi WNW 4.6 mph - N/A   Overcast
2:15 PM 51.3 °F - 47.1 °F 86% 29.86 in 10.0 mi West 6.9 mph - N/A   Overcast
2:35 PM 51.6 °F - 46.9 °F 84% 29.86 in 10.0 mi West 5.8 mph - N/A   Overcast
2:55 PM 50.9 °F - 46.4 °F 85% 29.86 in 5.0 mi WNW 4.6 mph - N/A Rain Rain
3:15 PM 51.3 °F - 47.1 °F 86% 29.86 in 10.0 mi West 3.5 mph - N/A   Overcast
3:35 PM 53.1 °F - 47.7 °F 82% 29.86 in 10.0 mi Calm Calm - N/A   Overcast
3:55 PM 52.7 °F - 46.4 °F 79% 29.86 in 10.0 mi Calm Calm - N/A   Overcast
4:15 PM 52.3 °F - 46.4 °F 80% 29.86 in 5.0 mi Calm Calm - N/A Rain Rain
4:35 PM 52.7 °F - 47.1 °F 81% 29.86 in 10.0 mi Calm Calm - N/A   Overcast
5:15 PM 51.3 °F - 48.0 °F 89% 29.86 in 10.0 mi NNE 4.6 mph - N/A   Overcast
5:35 PM 51.3 °F - 47.8 °F 88% 29.86 in 10.0 mi NNE 5.8 mph - N/A   Overcast
5:55 PM 50.9 °F - 48.4 °F 91% 29.86 in 4.0 mi NNE 5.8 mph - N/A   Drizzle
6:15 PM 50.9 °F - 47.5 °F 88% 29.86 in 10.0 mi North 4.6 mph - N/A   Overcast
6:55 PM 50.9 °F - 46.8 °F 86% 29.86 in 10.0 mi North 6.9 mph - N/A   Overcast
7:35 PM 50.5 °F - 46.6 °F 86% 29.86 in 10.0 mi NNE 8.1 mph - N/A   Overcast
7:55 PM 50.2 °F - 46.9 °F 89% 29.86 in 10.0 mi North 4.6 mph - N/A   Overcast
8:15 PM 50.0 °F - 46.8 °F 89% 29.86 in 10.0 mi North 4.6 mph - N/A   Overcast
8:55 PM 49.5 °F - 46.0 °F 88% 29.87 in 10.0 mi North 5.8 mph - N/A   Overcast
9:15 PM 49.1 °F - 46.0 °F 89% 29.87 in 10.0 mi North 8.1 mph - N/A   Overcast
9:55 PM 48.7 °F - 45.3 °F 88% 29.87 in 10.0 mi Calm Calm - N/A   Overcast
10:15 PM 48.2 °F - 45.3 °F 90% 29.87 in 10.0 mi North 4.6 mph - N/A   Overcast
10:35 PM 47.7 °F - 45.0 °F 90% 29.87 in 10.0 mi NNW 5.8 mph - N/A   Overcast
10:55 PM 46.9 °F - 44.6 °F 92% 29.87 in 10.0 mi NNW 4.6 mph - N/A   Overcast
11:15 PM 46.4 °F 43.5 °F 44.6 °F 93% 29.87 in 10.0 mi NNW 5.8 mph - N/A   Mostly Cloudy
11:35 PM 46.4 °F 43.5 °F 44.8 °F 94% 29.87 in 10.0 mi NNW 5.8 mph - N/A   Mostly Cloudy
11:55 PM 46.9 °F - 45.1 °F 93% 29.87 in 10.0 mi NNW 5.8 mph - N/A   Overcast